Regional Weather Roundup
Issued by NWS

Home | Current Version | Previous Version | Text Only | Print | Product List | Glossary Off
Versions: 1 2 3 4 5 6 7 8 9 10 11 12 13 14 15 16 17 18 19 20 21 22 23 24 25 26 27 28 29 30 31 32 33 34 35 36 37 38 39 40 41 42 43 44 45 46 47 48 49 50

000
ASUS43 KLSX 040710
RWRMO

WEATHER SUMMARY FOR MISSOURI
NATIONAL WEATHER SERVICE SPRINGFIELD MO
200 AM CDT TUE AUG 04 2015

NOTE: "FAIR" INDICATES FEW OR NO CLOUDS BELOW 12,000 FEET WITH NO
       SIGNIFICANT WEATHER AND/OR OBSTRUCTIONS TO VISIBILITY.
       CURRENT SKY AND/OR WEATHER CONDITIONS ARE NOT AVAILABLE FOR
       CHILLICOTHE AND FARMINGTON.

MOZ001>031-035>038-043-044-053-054-040800-
...NORTHERN AND WESTERN MISSOURI...

CITY           SKY/WX    TMP DP  RH WIND       PRES   REMARKS
KANSAS CTY INT PTCLDY    74  67  78 E7        29.94F
KANSAS C DTWN  CLEAR     76  68  76 E6        29.93F
LEE`S SUMMIT   CLEAR     73  68  84 E6        29.95F
ST JOSEPH      PTCLDY    73  67  81 E5        29.93F
CHILLICOTHE      N/A     73  68  84 CALM      29.96S
KIRKSVILLE     MOCLDY    68  62  81 CALM      29.99R

$$
MOZ066>068-077>081-088>096-101>105-040800-
...SOUTHWEST MISSOURI...

CITY           SKY/WX    TMP DP  RH WIND       PRES   REMARKS
SPRINGFIELD    CLEAR     73  67  81 S3        29.96F
JOPLIN         CLEAR     70  66  87 CALM      29.95F

$$
MOZ032>034-039>042-045>050-055>058-069>072-040800-
...CENTRAL MISSOURI...

CITY           SKY/WX    TMP DP  RH WIND       PRES   REMARKS
COLUMBIA       PTCLDY    73  68  84 E6        29.95S
JEFFERSON CITY PTCLDY    75  68  78 SE5       29.94S
ROLLA          PTCLDY    72  70  93 S3        29.95S
SEDALIA        CLEAR     75  70  84 E3        29.95F
WHITEMAN AFB   PTCLDY    73  70  91 NE1       29.92F
WARRENSBURG    CLEAR     72  68  88 NE3       29.93F
OSAGE BEACH    PTCLDY    73  70  88 CALM      29.95S

$$
MOZ051-052-059>065-040800-
...EAST CENTRAL MISSOURI...

CITY           SKY/WX    TMP DP  RH WIND       PRES   REMARKS
ST LOUIS INTL  MOCLDY    79  65  62 NE5       29.95S
SPIRIT OF STL  PTCLDY    74  73  97 CALM      29.93S
ST CHARLES     MOCLDY    76  66  71 NE6       29.93F

$$
MOZ072>076-082>087-097>100-106>115-040800-
...SOUTH CENTRAL AND SOUTHEAST MISSOURI...

CITY           SKY/WX    TMP DP  RH WIND       PRES   REMARKS
CAPE GIRARDEAU PTCLDY    74  73  97 CALM      29.92S
FARMINGTON     PTCLDY    72  70  94 CALM      29.99F
POPLAR BLUFF   CLEAR     74  73  97 CALM      29.91S
WEST PLAINS    PTCLDY    72  68  87 CALM      29.99S

$$


USA.gov is the U.S. government's official web portal to all federal, state and local government web resources and services.